Back to catalog

STARLINK-36658

AliveCommunicationsVLEO
NORAD 67846·PAYLOAD·🇺🇸 United States

Launched Feb 16, 2026 from Vandenberg Space Force Base

Loading…

Next Passes (next 24 hours)

TLE

FreshSource: CelesTrak SupGP

Epoch: Sep 15, 2026, 03:17 UTC

1 67846C 26033AB  26258.13729167 -.00013722  00000+0 -49692-3 0  2581
2 67846  43.0000 277.4369 0001491 266.9007 117.2411 15.27590491    14

Track STARLINK-36658 in real time with AllMySat

Download on the App Store